Tracking 34408 objects as of 13-Jun-2026
HD Live streaming from Space Station
objects crossing your sky now

STARLINK-11382

Track STARLINK-11382 now!
10-day predictions
STARLINK-11382 is classified as:


NORAD ID: 62881
Int'l Code: 2025-024C
Perigee: 361.9 km
Apogee: 364.8 km
Inclination: 43.0 °
Period: 91.7 minutes
Semi major axis: 6734 km
RCS: Unknown
Launch date: February 4, 2025
Source: United States (US)
Launch site: AIR FORCE EASTERN TEST RANGE (AFETR)
Your satellite tracking list
Your tracking list is empty




NASA's NSSDC Master Catalog

Two Line Element Set (TLE):
1 62881U 25024C   26163.73270548  .00167699  00000-0  12791-2 0  9992
2 62881  42.9989 328.6382 0002147 260.2135  99.8490 15.70933687 78411
Source of the keplerian elements: AFSPC